#timestamp,LO_Frequency,Hit 
1500804015.5,286044001.5,N
1500804035.4,286044001.2,N
1500804055.2,286044001.8,N
1500804075.0,286044001.5,N
1500804076.0,286044001.5,N
1500804095.8,286044003.8,N
1500804115.6,286044001.8,N
1500804135.5,286044004.0,N
1500804155.3,286044002.0,N
1500804175.1,286044002.0,N
1500804195.9,286044002.4,N
1500804215.7,286044001.7,N
1500804235.6,286044001.3,N
1500804255.4,286044001.8,N
1500804275.2,286044001.6,N
1500804295.1,286044001.9,N
1500804296.0,286044001.9,N
1500804315.8,286044002.1,N
1500804335.6,286044001.9,N
1500804355.5,286044001.7,N
1500804375.3,286044001.9,N
1500804395.2,286044002.0,N
1500804415.9,286044001.2,N
1500804435.7,286044001.2,N
1500804455.6,286044003.6,N
1500804475.4,286044001.3,N
1500804495.3,286044001.7,N
1500804515.1,286044001.5,N
1500804516.0,286044001.5,N
1500804535.8,286044001.5,N
1500804555.7,286044000.0,N
1500804575.5,286044002.5,N
1500804595.3,286044002.4,N
1500804615.2,286044001.7,N
1500804635.0,286044001.7,N
1500804635.9,286044001.7,N
1500804655.8,286044003.6,N
1500804675.6,286044001.4,N
1500804695.4,286044002.9,N
1500804715.3,286044003.1,N
1500804735.1,286044001.4,N
1500804755.9,286044001.9,N
1500804775.7,286044001.8,N
1500804795.5,286044001.5,N
1500804815.4,286044001.9,N
1500804835.2,286044001.7,N
1500804855.0,286044001.7,N
1500804855.9,286044001.7,N
1500804875.8,286044001.7,N
1500804895.6,286044001.3,N
1500804915.5,286044001.3,N
1500804935.3,286044001.2,N
1500804955.1,286044004.2,N
1500804975.9,286044001.2,N
1500804995.7,286044003.1,N
1500805015.5,286044003.5,N
1500805035.4,286044004.0,N
1500805055.2,286044001.6,N
1500805075.1,286044001.2,N
1500805076.0,286044001.2,N
1500805095.8,286044001.2,N
1500805115.6,286044004.3,N
1500805135.5,286044003.8,N
1500805155.3,286044003.9,N
1500805175.2,286044003.8,N
1500805195.9,286044003.5,N
1500805215.7,286044005.0,N
1500805235.6,286044005.1,N
1500805255.4,286044004.9,N
1500805275.2,286044005.1,N
1500805295.1,286044005.6,N
1500805296.0,286044005.6,N
1500805315.8,286044005.3,N
1500805335.7,286044005.2,N
1500805355.5,286044002.9,N
1500805375.3,286044003.1,N
1500805395.2,286044003.0,N
1500805415.0,286044003.8,N
1500805415.9,286044003.8,N
1500805435.8,286044004.2,N
1500805455.6,286044001.4,N
1500805475.4,286044002.0,N
1500805495.3,286044002.1,N
1500805515.1,286044001.4,N
1500805535.9,286044001.5,N
1500805555.7,286044002.7,N
1500805575.5,286044000.1,N
1500805595.4,286043999.8,N
1500805615.2,286044000.8,N
1500805635.0,286044001.0,N
1500805635.9,286044001.0,N
1500805655.8,286044000.6,N
1500805675.6,286044000.8,N
1500805695.5,286044000.5,N
1500805715.3,286044000.7,N
1500805735.1,286044000.2,N
1500805755.9,286044001.1,N
1500805775.7,286043998.0,N
1500805795.6,286043998.8,N
1500805815.4,286043997.1,N
1500805835.2,286043996.6,N
1500805855.1,286043996.7,N
1500805856.0,286043996.7,N
1500805875.8,286043997.0,N
1500805895.7,286043996.9,N
1500805915.5,286043997.4,N
1500805935.3,286043995.5,N
1500805955.2,286043995.2,N
1500805975.0,286043996.3,N
1500805975.9,286043996.3,N
1500805995.7,286043995.4,N
1500806015.6,286043996.2,N
1500806035.4,286043995.7,N
1500806055.3,286043993.3,N
1500806075.1,286043996.1,N
1500806076.0,286043996.1,N
1500806095.8,286043995.1,N
1500806115.7,286043994.9,N
1500806135.5,286043995.2,N
1500806155.4,286043995.2,N
1500806175.2,286043995.7,N
1500806195.0,286043993.6,N
1500806195.9,286043993.6,N
1500806215.8,286043996.0,N
1500806235.6,286043996.3,N
1500806255.5,286043996.2,N
1500806275.3,286043993.3,N
1500806295.1,286043993.7,N
1500806315.9,286043993.2,N
1500806335.7,286043993.6,N
1500806355.6,286043994.1,N
1500806375.4,286043992.2,N
1500806395.2,286043991.7,N
1500806415.1,286043991.9,N
1500806416.0,286043991.9,N
1500806435.8,286043994.6,N
1500806455.6,286043995.9,N
1500806475.5,286043995.7,N
1500806495.3,286043991.6,N
1500806515.2,286043993.4,N
1500806535.9,286043994.2,N
1500806555.7,286043994.6,N
1500806575.6,286043992.1,N
1500806595.4,286043990.1,N
1500806615.3,286043990.4,N
1500806635.1,286043990.6,N
1500806636.0,286043990.6,N
1500806655.8,286043991.1,N
1500806675.7,286043990.4,N
1500806695.5,286043992.6,N
1500806715.3,286043991.3,N
1500806735.2,286043990.5,N
1500806755.0,286043990.4,N
1500806755.9,286043990.4,N
1500806775.8,286043990.3,N
1500806795.6,286043991.2,N
1500806815.4,286043990.5,N
1500806835.3,286043990.1,N
1500806855.1,286043990.8,N
1500806875.9,286043990.9,N
1500806895.7,286043991.5,N
1500806915.5,286043990.6,N
1500806935.4,286043990.7,N
1500806955.2,286043990.7,N
1500806975.0,286043988.4,N
1500806975.9,286043988.4,N
1500806995.8,286043991.1,N
1500807015.6,286043991.1,N
1500807035.5,286043990.7,N
1500807055.3,286043990.8,N
1500807075.1,286043990.9,N
1500807095.9,286043990.3,N
1500807115.7,286043990.6,N
1500807135.6,286043990.3,N
1500807155.4,286043991.8,N
1500807175.2,286043991.7,N
1500807195.1,286043992.1,N
1500807196.0,286043992.1,N
1500807215.8,286043994.7,N
1500807235.7,286043992.6,N
1500807255.5,286043992.9,N
1500807275.3,286043990.2,N
1500807295.2,286043993.0,N
1500807315.9,286043992.4,N
1500807335.7,286043991.7,N
1500807355.6,286043991.7,N
1500807375.4,286043992.2,N
1500807395.3,286043994.3,N
1500807415.1,286043991.7,N
1500807416.0,286043991.7,N
1500807435.8,286043992.5,N
1500807455.7,286043992.0,N
1500807475.5,286043994.3,N
1500807495.3,286043994.7,N
1500807515.2,286043991.0,N
1500807535.0,286043993.6,N
1500807535.9,286043993.6,N
1500807555.8,286043993.4,N
1500807575.6,286043995.9,N
1500807595.4,286043995.1,N
